User: anonymous   Login
Location: Fishcreek Rd Observing Site
(41.1865°N, 81.4271°W)
Time: 14:27:34
(UTC-05:00)
Language:

Iridium 45 - Orbit

View from above orbital plane
View from above orbital plane
View from above satellite
View from above satellite

Ground track
Ground track

The orbit data is extracted from the following two-line orbital elements,

1 25104U 97082A   17055.38578126  .00000233  00000-0  75988-4 0  9995
2 25104  86.3995 334.3959 0001603  54.0000 306.1345 14.34221213  4200
Epoch (UTC): 24 February 2017 09:15:31
Eccentricity: 0.0001603
inclination: 86.3995°
perigee height: 776 km
apogee height: 779 km
right ascension of ascending node: 334.3959°
argument of perigee: 54.0000°
revolutions per day: 14.34221213
mean anomaly at epoch: 306.1345°
orbit number at epoch: 420

The dashed part of the orbit path shows where the satellite is in the earth's shadow,  

DLR